Location: Be?i?
(36.9044°N, 30.1006°E)
Time: 10:20:36
(UTC+00:00)

Cosmos 1812 Rocket - Pass Details

Date: 05 August 2024
Orbit: 601 x 628 km, 82.5° (Epoch: 13 September)

Event Time Altitude Azimuth Distance (km) Brightness Sun altitude
Rises 19:47:05 0° 349° (N) 2,919 8.0 -27.3°
Reaches altitude 10° 19:49:21 10° 347° (NNW) 2,004 7.0 -27.6°
Enters shadow 19:52:55 53° 318° (NW) 771 4.3 -28.0°
